SCP
0 0 0 -0 0 0 -0 -0 0 0 0 0 0 0 0 -0 0 -0 0 -0 -0 -0 0 -0 -0 -0 -0 -0 -0 -0 0 0 0 0 0 -0 -0 -0 -0 -0 0 0 0
0 0 0 0 0 -0 -0 -0 0 0 0 0 -0 -0 -0 0 0 -0 0 -0 -0 -0 -0 0 -0 -0 -0 -0 0 0 0 0 0 0 -0 -0 -0 -0 -0 -0 0 0 0
0 -0 0 -0 -0 0 0 -0 -0 -0 -0 0 -0 -0 -0 -0 -0 0 0 0 0 -0 0 -0 -0 0 0 0 0 0 0 0 0 0 0 0 0 -0 -0 0 0 -0 0
0 -0 0 -0 -0 -0 -0 -0 0 0 0 -0 -0 -0 -0 -0 -0 -0 0 0 0 0 0 0 0 0 0 -0 -0 -0 0 0 0 0 0 0 0 0 -0 0 0 0 0
0 0 -0 -0 -0 0 -0 -0 -0 -0 -0 -0 -0 0 -0 -0 -0 -0 -0 0 -0 -0 -0 0 -0 0 -0 -0 -0 -0 -0 -0 0 0 -0 -0 -0 -0 -0 -0 -0 0 0
0 0 -0 -0 0 0 0 0 0 0 0 -0 0 0 0 0 -0 0 0 0 -0 0 0 0 -0 0 0 -0 -0 -0 -0 -0 -0 0 0 -0 -0 -0 -0 -0 -0 -0 -0
0 0 0 -0 -0 -0 0 -0 -0 0 0 0 0 0 0 0 0 0 -0 0 0 -0 0 0 0 0 0 -0 -0 -0 -0 -0 -0 -0 -0 -0 -0 -0 -0 -0 -0 -0 -0
0 0 0 -0 -0 -0 -0 -0 -0 0 0 -0 0 0 0 0 -0 -0 -0 0 -0 -0 -0 0 -0 0 0 0 0 -0 -0 -0 -0 -0 -0 -0 -0 -0 -0 -0 -0 -0 -0
0 0 0 0 -0 0 -0 -0 0 0 -0 0 -0 -0 -0 0 -0 -0 0 0 0 0 -0 -0 0 0 0 -0 -0 0 -0 -0 -0 -0 -0 -0 -0 -0 -0 -0 -0 -0 -0
0 0 0 0 0 0 0 -0 -0 0 -0 -0 -0 -0 -0 0 0 -0 -0 -0 0 0 -0 0 0 0 -0 -0 -0 -0 -0 -0 -0 -0 -0 -0 -0 -0 -0 -0 -0 -0 -0
0 0 0 0 0 0 0 -0 -0 -0 -0 -0 -0 -0 0 0 0 0 0 0 0 0 0 -0 -0 -0 -0 -0 0 -0 -0 -0 -0 -0 -0 -0 -0 -0 -0 -0 -0 -0 -0
0 0 0 0 0 0 0 0 0 -0 -0 0 0 0 0 0 -0 -0 0 0 -0 0 0 -0 -0 -0 0 0 -0 -0 -1 -1 -0 -0 -0 -0 -0 -0 -0 -0 -0 -0 -0
0 0 0 0 0 0 0 0 0 0 0 0 0 0 -0 0 0 0 0 0 0 0 -0 -0 -0 -0 -0 0 -0 -0 -0 -0 -0 -0 -0 -0 -0 -0 -0 -0 -0 -0 -0
0 -0 0 0 0 0 0 0 0 0 0 0 0 0 0 -0 0 -0 -0 -0 0 0 0 -0 0 0 -0 -0 -0 -0 -0 -0 -0 -0 -0 -0 -0 -0 -0 -0 -0 -0 -0
0 -0 -0 -0 -0 -0 0 0 0 0 0 0 0 0 0 0 -0 -0 0 -0 0 -0 -0 -0 -0 -0 -0 -0 -0 -0 -0 -0 -0 -0 -0 -0 -0 -0 -0 0 0 0 -0
0 -0 0 0 0 0 0 0 0 0 0 0 -0 0 0 -0 0 -0 0 0 0 0 -0 -0 0 -0 -0 0 0 -0 -0 -0 -0 -0 -0 -0 -0 -0 -0 -0 -0 0 -0
0 0 -0 0 0 -0 -0 0 0 0 -0 0 0 0 0 -0 -0 -0 0 -0 0 0 0 -0 0 0 -0 -0 -0 -0 -0 -0 -0 -0 -0 -0 -0 -0 -0 -0 -0 -0 -0
-0 -0 -0 0 0 0 0 0 0 0 -0 0 0 0 0 0 -0 -0 -0 0 -0 0 0 -0 0 0 0 0 0 0 0 -0 -0 0 -0 -0 -0 -0 -0 -0 -0 -0 -0
-0 -0 -0 0 -0 -0 0 -0 -0 0 0 0 0 0 0 0 0 0 -0 -0 0 0 0 -0 -0 0 0 0 0 0 0 0 0 -0 -0 0 0 0 0 0 0 0 0
-0 -0 -0 -0 -0 -0 -0 -0 0 0 0 0 0 0 0 0 0 0 0 0 0 0 0 0 -0 -0 0 0 0 0 0 0 0 0 0 0 0 0 0 0 0 0 0
0 0 0 -0 0 -0 -0 0 0 0 0 0 0 0 0 0 0 0 0 0 0 1 1 0 0 0 0 1 1 1 1 1 1 1 1 1 1 0 0 0 0 0 0
0 0 0 0 -0 0 -0 0 0 0 0 0 0 0 0 0 0 0 0 0 0 0 0 0 0 0 1 0 0 1 0 0 0 0 0 0 0 0 0 0 0 0 0
0 0 0 0 0 0 0 0 0 0 0 0 0 0 0 0 0 0 0 0 0 0 0 0 0 0 0 0 0 0 0 0 0 0 0 0 0 0 0 0 0 0 0
0 0 0 0 0 0 0 0 0 0 0 0 0 0 0 0 0 0 0 0 0 0 0 0 0 0 0 0 0 0 0 0 0 0 0 0 0 0 0 0 0 0 0
0 0 0 0 0 0 0 0 0 0 0 0 0 0 0 0 0 0 0 0 0 0 0 0 0 0 0 0 0 0 0 0 0 0 0 0 0 0 0 0 0 0 0
0 0 0 0 0 0 0 0 0 0 0 0 0 0 0 0 0 0 0 0 0 0 0 0 0 0 0 0 0 0 0 0 0 0 0 0 0 0 0 0 0 0 0
Wind_Speed_500mb
22 20 23 21 25 21 26 14 24 22 25 18 14 13 22 32 18 25 28 19 23 25 27 27 27 25 24 25 24 22 20 22 24 27 24 23 19 16 15 15 13 10 7
25 24 26 27 23 14 15 15 20 26 23 16 19 21 17 15 28 27 22 24 28 27 27 27 27 24 23 23 24 22 24 25 24 25 22 21 19 16 13 13 11 8 5
23 25 28 25 14 14 12 20 27 26 17 17 15 17 21 29 27 35 33 27 31 29 36 30 27 24 23 22 23 23 25 25 25 24 22 20 18 17 14 13 11 7 5
22 24 28 22 15 11 13 22 30 20 15 18 16 11 23 22 26 34 38 34 25 37 39 38 35 28 24 22 23 25 25 26 25 24 23 21 18 15 15 12 10 10 7
29 32 32 26 20 18 21 26 31 23 19 18 14 8 13 16 20 21 35 37 33 21 31 43 45 39 31 25 24 26 27 27 28 27 25 24 23 21 18 15 14 14 13
26 30 31 30 24 25 25 30 27 19 14 14 8 16 5 7 7 15 23 34 29 32 33 27 41 48 45 39 33 29 30 30 30 30 30 27 26 25 23 20 19 19 18
36 35 32 32 25 33 24 28 25 22 18 12 12 6 5 9 3 9 14 25 36 34 39 40 41 40 50 50 45 40 38 38 35 34 33 33 32 30 28 26 25 25 24
38 37 38 31 29 31 28 25 22 17 14 9 12 6 8 14 11 13 16 14 24 30 34 35 41 29 29 34 46 43 47 43 41 39 37 37 36 36 35 35 34 33 31
33 32 32 34 30 34 34 27 28 23 18 14 13 5 6 7 18 25 22 11 14 24 27 35 31 28 37 38 32 35 44 47 45 45 44 42 41 40 39 38 38 39 39
28 29 32 30 25 28 32 26 22 23 17 15 9 12 8 4 8 9 22 25 22 20 22 28 34 38 33 39 37 27 22 37 45 48 48 48 49 47 46 45 44 43 43
30 30 28 26 24 23 34 24 24 28 20 15 10 8 13 12 13 11 9 28 28 23 20 20 20 24 31 33 25 37 37 36 34 40 47 51 52 53 52 50 50 51 53
15 24 21 22 23 21 35 32 23 25 29 18 16 15 13 5 7 8 13 18 23 28 34 18 20 19 26 41 38 36 40 32 29 32 39 43 47 51 54 55 54 54 56
21 21 14 19 23 17 22 34 33 32 32 30 19 11 12 14 10 10 12 9 16 17 34 39 22 14 26 23 22 26 37 41 39 33 33 37 40 42 44 46 47 48 50
19 21 13 14 17 18 19 28 32 29 24 29 28 19 20 17 16 13 8 5 10 15 18 23 31 25 21 26 29 27 35 38 36 36 37 39 38 38 40 43 46 49 49
10 2 4 13 10 13 19 21 24 29 29 24 18 26 23 11 22 18 12 19 10 10 19 23 20 33 37 26 24 26 32 32 37 41 46 48 48 48 48 50 53 54 54
8 3 4 5 8 10 9 16 21 23 25 20 17 18 16 19 19 21 19 16 17 20 20 18 21 28 20 35 34 29 28 31 36 34 35 37 40 42 43 42 43 46 50
1 5 5 9 8 8 11 11 13 18 23 26 27 25 24 21 27 24 25 24 17 22 28 17 23 36 26 27 33 36 34 30 25 26 25 30 31 34 39 42 45 46 47
8 3 0 4 4 11 11 10 12 12 13 15 19 25 27 23 26 36 33 25 31 28 27 29 17 7 27 23 31 31 31 36 37 38 38 37 37 39 48 48 50 54 59
12 9 3 6 9 6 4 5 3 6 7 10 13 17 20 27 27 28 39 43 36 35 40 40 41 29 22 26 30 30 32 35 36 41 41 45 43 44 49 52 52 47 48
11 9 7 9 8 4 9 9 10 8 6 10 9 3 12 20 21 24 27 30 33 39 40 41 42 49 46 47 45 44 46 42 47 42 43 49 49 45 41 44 44 50 52
10 7 7 3 6 16 15 16 14 8 7 8 5 5 5 8 10 12 16 17 18 19 20 21 21 19 16 22 25 22 26 26 24 24 28 27 23 31 37 39 42 43 41
13 12 10 8 15 18 14 15 21 10 4 3 5 11 6 18 15 19 23 28 28 28 26 24 20 18 21 25 25 23 27 29 33 29 33 34 34 41 34 33 34 27 32
11 15 12 9 21 17 16 11 13 17 13 13 14 16 9 14 22 25 24 22 15 19 25 29 29 33 39 45 44 44 45 44 44 43 42 48 41 39 38 47 48 47 44
11 10 11 13 19 12 14 11 13 18 8 11 7 6 24 30 25 31 33 34 28 18 20 17 14 22 26 32 33 35 37 42 48 44 22 48 41 44 43 42 31 22 20
16 11 12 9 18 5 6 6 13 11 7 19 11 17 22 20 16 16 19 21 20 17 8 19 27 30 35 36 38 37 37 33 31 26 30 38 30 34 41 39 38 37 34
14 15 13 17 18 9 9 8 11 15 6 5 17 20 21 25 14 14 13 14 9 16 19 20 18 25 16 18 21 23 20 26 28 29 18 38 37 31 41 46 46 38 27
Wind_Direction_500mb
254 244 253 259 270 278 253 242 253 264 273 276 232 219 205 205 203 204 217 226 211 176 169 178 170 169 171 170 174 176 175 166 168 168 171 165 163 164 157 147 141 131 125
257 265 259 263 271 231 209 246 257 274 277 244 225 247 208 212 199 214 217 229 209 194 182 178 174 175 176 170 171 174 174 169 171 175 177 173 174 174 173 162 164 150 150
257 275 266 271 251 196 218 236 258 267 258 238 249 239 239 237 226 211 213 211 212 201 207 191 178 173 181 176 177 177 177 179 180 182 185 187 186 192 198 194 186 186 201
280 279 273 274 238 208 243 224 256 267 257 256 274 260 243 248 240 222 217 210 218 209 212 206 203 192 195 188 188 189 190 190 190 192 195 197 202 206 213 223 227 233 242
274 267 273 269 240 202 225 222 250 261 260 268 281 280 229 222 238 218 209 203 218 210 218 219 212 209 214 212 202 202 200 202 201 202 205 205 209 213 219 227 238 249 259
269 268 271 262 241 212 228 224 232 238 248 277 300 221 223 193 226 211 204 197 203 200 214 230 222 227 231 229 226 222 212 211 213 214 216 218 222 222 225 232 239 246 250
273 272 269 254 247 225 215 227 221 228 240 250 237 276 118 199 222 207 206 191 197 201 204 213 232 230 230 230 232 233 228 219 218 225 229 228 226 226 230 237 241 246 251
269 269 265 257 252 230 215 219 209 213 205 182 253 238 160 144 186 201 204 196 199 202 201 216 226 241 234 230 235 235 230 229 227 227 234 240 240 239 238 240 243 247 250
270 261 261 260 254 227 222 212 223 195 186 188 217 220 161 167 169 192 195 227 196 187 196 219 215 209 213 235 233 239 239 233 236 238 237 239 244 248 251 253 256 260 262
259 256 260 265 241 221 209 210 207 199 207 210 222 226 169 180 146 180 201 204 220 202 189 203 210 205 219 228 238 235 245 241 240 240 245 247 247 248 249 252 257 260 263
257 262 263 255 237 220 206 200 206 210 203 220 199 224 197 208 201 209 210 210 216 203 203 218 211 217 219 227 229 241 248 250 240 243 245 247 248 249 252 256 259 261 263
279 280 259 242 239 227 211 205 195 223 198 197 233 225 233 194 159 215 216 201 228 216 215 215 216 208 222 222 236 228 243 255 258 258 253 250 249 250 252 254 256 260 263
245 275 255 261 246 223 208 201 206 214 206 200 210 239 219 207 238 264 248 201 216 228 219 224 234 233 227 221 236 215 237 249 255 255 252 249 249 251 256 259 262 264 266
240 239 267 254 229 225 218 211 216 215 218 208 216 215 242 227 214 200 271 194 162 199 217 219 221 233 246 251 253 243 243 254 252 261 258 255 254 253 256 260 265 266 267
227 208 292 253 247 224 221 221 217 218 216 222 225 222 225 229 223 211 255 262 241 214 228 230 216 221 224 242 255 251 249 269 271 266 263 258 259 260 262 265 266 266 267
226 240 251 241 280 262 235 229 221 217 214 209 218 251 241 207 242 241 225 224 259 275 271 253 215 222 271 230 220 233 245 258 271 270 268 264 263 264 264 267 271 269 267
298 310 268 228 198 211 238 233 229 221 221 215 206 227 238 222 219 218 241 244 248 266 253 301 251 223 238 210 226 244 266 269 287 296 287 284 276 275 273 276 278 276 274
54 346 65 173 174 197 214 226 216 213 218 220 218 231 242 242 233 224 232 245 235 246 252 255 239 221 229 239 247 259 257 244 252 264 280 286 277 271 288 293 290 282 277
134 147 266 76 120 152 174 185 187 209 228 236 232 221 232 238 241 230 240 247 245 247 250 260 259 253 239 241 258 260 268 270 265 254 260 269 275 273 279 282 275 277 287
161 163 141 129 97 128 157 139 89 67 64 62 67 148 228 237 241 245 240 243 245 249 254 256 260 258 263 264 272 274 277 281 283 282 275 275 274 274 283 287 288 292 286
171 154 129 194 128 232 222 211 194 146 235 185 162 21 268 248 247 237 238 242 240 240 243 249 250 261 275 283 277 287 293 297 291 295 288 289 287 289 289 289 290 292 289
187 168 184 156 218 246 246 245 220 180 300 303 189 206 290 276 262 249 247 253 255 255 258 254 244 245 255 262 253 250 261 273 279 250 287 281 266 260 264 263 277 281 280
201 178 174 185 246 264 263 234 200 169 178 226 226 215 180 219 224 245 257 272 279 263 262 264 272 268 266 271 272 272 271 278 281 280 280 284 286 296 287 277 276 284 297
221 213 211 213 262 273 247 230 204 216 160 260 235 231 234 252 244 253 263 270 260 242 278 280 278 271 270 282 279 276 278 279 284 295 304 295 308 301 296 298 295 304 310
225 223 220 210 263 268 245 207 178 138 230 256 243 248 272 290 298 288 273 268 267 259 243 261 261 267 272 277 276 277 276 279 284 281 283 289 291 292 282 279 292 288 309
206 200 226 227 243 256 241 236 211 207 172 251 264 293 301 303 310 304 285 264 241 254 234 242 258 287 298 307 296 291 288 283 285 298 277 308 304 313 311 291 285 291 291
Wind_Speed_850mb
22 20 23 21 25 21 26 14 24 22 25 18 14 13 22 32 18 25 28 19 23 25 27 27 27 25 24 25 24 22 20 22 24 27 24 23 19 16 15 15 13 10 7
25 24 26 27 23 14 15 15 20 26 23 16 19 21 17 15 28 27 22 24 28 27 27 27 27 24 23 23 24 22 24 25 24 25 22 21 19 16 13 13 11 8 5
23 25 28 25 14 14 12 20 27 26 17 17 15 17 21 29 27 35 33 27 31 29 36 30 27 24 23 22 23 23 25 25 25 24 22 20 18 17 14 13 11 7 5
22 24 28 22 15 11 13 22 30 20 15 18 16 11 23 22 26 34 38 34 25 37 39 38 35 28 24 22 23 25 25 26 25 24 23 21 18 15 15 12 10 10 7
29 32 32 26 20 18 21 26 31 23 19 18 14 8 13 16 20 21 35 37 33 21 31 43 45 39 31 25 24 26 27 27 28 27 25 24 23 21 18 15 14 14 13
26 30 31 30 24 25 25 30 27 19 14 14 8 16 5 7 7 15 23 34 29 32 33 27 41 48 45 39 33 29 30 30 30 30 30 27 26 25 23 20 19 19 18
36 35 32 32 25 33 24 28 25 22 18 12 12 6 5 9 3 9 14 25 36 34 39 40 41 40 50 50 45 40 38 38 35 34 33 33 32 30 28 26 25 25 24
38 37 38 31 29 31 28 25 22 17 14 9 12 6 8 14 11 13 16 14 24 30 34 35 41 29 29 34 46 43 47 43 41 39 37 37 36 36 35 35 34 33 31
33 32 32 34 30 34 34 27 28 23 18 14 13 5 6 7 18 25 22 11 14 24 27 35 31 28 37 38 32 35 44 47 45 45 44 42 41 40 39 38 38 39 39
28 29 32 30 25 28 32 26 22 23 17 15 9 12 8 4 8 9 22 25 22 20 22 28 34 38 33 39 37 27 22 37 45 48 48 48 49 47 46 45 44 43 43
30 30 28 26 24 23 34 24 24 28 20 15 10 8 13 12 13 11 9 28 28 23 20 20 20 24 31 33 25 37 37 36 34 40 47 51 52 53 52 50 50 51 53
15 24 21 22 23 21 35 32 23 25 29 18 16 15 13 5 7 8 13 18 23 28 34 18 20 19 26 41 38 36 40 32 29 32 39 43 47 51 54 55 54 54 56
21 21 14 19 23 17 22 34 33 32 32 30 19 11 12 14 10 10 12 9 16 17 34 39 22 14 26 23 22 26 37 41 39 33 33 37 40 42 44 46 47 48 50
19 21 13 14 17 18 19 28 32 29 24 29 28 19 20 17 16 13 8 5 10 15 18 23 31 25 21 26 29 27 35 38 36 36 37 39 38 38 40 43 46 49 49
10 2 4 13 10 13 19 21 24 29 29 24 18 26 23 11 22 18 12 19 10 10 19 23 20 33 37 26 24 26 32 32 37 41 46 48 48 48 48 50 53 54 54
8 3 4 5 8 10 9 16 21 23 25 20 17 18 16 19 19 21 19 16 17 20 20 18 21 28 20 35 34 29 28 31 36 34 35 37 40 42 43 42 43 46 50
1 5 5 9 8 8 11 11 13 18 23 26 27 25 24 21 27 24 25 24 17 22 28 17 23 36 26 27 33 36 34 30 25 26 25 30 31 34 39 42 45 46 47
8 3 0 4 4 11 11 10 12 12 13 15 19 25 27 23 26 36 33 25 31 28 27 29 17 7 27 23 31 31 31 36 37 38 38 37 37 39 48 48 50 54 59
12 9 3 6 9 6 4 5 3 6 7 10 13 17 20 27 27 28 39 43 36 35 40 40 41 29 22 26 30 30 32 35 36 41 41 45 43 44 49 52 52 47 48
11 9 7 9 8 4 9 9 10 8 6 10 9 3 12 20 21 24 27 30 33 39 40 41 42 49 46 47 45 44 46 42 47 42 43 49 49 45 41 44 44 50 52
10 7 7 3 6 16 15 16 14 8 7 8 5 5 5 8 10 12 16 17 18 19 20 21 21 19 16 22 25 22 26 26 24 24 28 27 23 31 37 39 42 43 41
13 12 10 8 15 18 14 15 21 10 4 3 5 11 6 18 15 19 23 28 28 28 26 24 20 18 21 25 25 23 27 29 33 29 33 34 34 41 34 33 34 27 32
11 15 12 9 21 17 16 11 13 17 13 13 14 16 9 14 22 25 24 22 15 19 25 29 29 33 39 45 44 44 45 44 44 43 42 48 41 39 38 47 48 47 44
11 10 11 13 19 12 14 11 13 18 8 11 7 6 24 30 25 31 33 34 28 18 20 17 14 22 26 32 33 35 37 42 48 44 22 48 41 44 43 42 31 22 20
16 11 12 9 18 5 6 6 13 11 7 19 11 17 22 20 16 16 19 21 20 17 8 19 27 30 35 36 38 37 37 33 31 26 30 38 30 34 41 39 38 37 34
14 15 13 17 18 9 9 8 11 15 6 5 17 20 21 25 14 14 13 14 9 16 19 20 18 25 16 18 21 23 20 26 28 29 18 38 37 31 41 46 46 38 27
Wind_Direction_850mb
254 244 253 259 270 278 253 242 253 264 273 276 232 219 205 205 203 204 217 226 211 176 169 178 170 169 171 170 174 176 175 166 168 168 171 165 163 164 157 147 141 131 125
257 265 259 263 271 231 209 246 257 274 277 244 225 247 208 212 199 214 217 229 209 194 182 178 174 175 176 170 171 174 174 169 171 175 177 173 174 174 173 162 164 150 150
257 275 266 271 251 196 218 236 258 267 258 238 249 239 239 237 226 211 213 211 212 201 207 191 178 173 181 176 177 177 177 179 180 182 185 187 186 192 198 194 186 186 201
280 279 273 274 238 208 243 224 256 267 257 256 274 260 243 248 240 222 217 210 218 209 212 206 203 192 195 188 188 189 190 190 190 192 195 197 202 206 213 223 227 233 242
274 267 273 269 240 202 225 222 250 261 260 268 281 280 229 222 238 218 209 203 218 210 218 219 212 209 214 212 202 202 200 202 201 202 205 205 209 213 219 227 238 249 259
269 268 271 262 241 212 228 224 232 238 248 277 300 221 223 193 226 211 204 197 203 200 214 230 222 227 231 229 226 222 212 211 213 214 216 218 222 222 225 232 239 246 250
273 272 269 254 247 225 215 227 221 228 240 250 237 276 118 199 222 207 206 191 197 201 204 213 232 230 230 230 232 233 228 219 218 225 229 228 226 226 230 237 241 246 251
269 269 265 257 252 230 215 219 209 213 205 182 253 238 160 144 186 201 204 196 199 202 201 216 226 241 234 230 235 235 230 229 227 227 234 240 240 239 238 240 243 247 250
270 261 261 260 254 227 222 212 223 195 186 188 217 220 161 167 169 192 195 227 196 187 196 219 215 209 213 235 233 239 239 233 236 238 237 239 244 248 251 253 256 260 262
259 256 260 265 241 221 209 210 207 199 207 210 222 226 169 180 146 180 201 204 220 202 189 203 210 205 219 228 238 235 245 241 240 240 245 247 247 248 249 252 257 260 263
257 262 263 255 237 220 206 200 206 210 203 220 199 224 197 208 201 209 210 210 216 203 203 218 211 217 219 227 229 241 248 250 240 243 245 247 248 249 252 256 259 261 263
279 280 259 242 239 227 211 205 195 223 198 197 233 225 233 194 159 215 216 201 228 216 215 215 216 208 222 222 236 228 243 255 258 258 253 250 249 250 252 254 256 260 263
245 275 255 261 246 223 208 201 206 214 206 200 210 239 219 207 238 264 248 201 216 228 219 224 234 233 227 221 236 215 237 249 255 255 252 249 249 251 256 259 262 264 266
240 239 267 254 229 225 218 211 216 215 218 208 216 215 242 227 214 200 271 194 162 199 217 219 221 233 246 251 253 243 243 254 252 261 258 255 254 253 256 260 265 266 267
227 208 292 253 247 224 221 221 217 218 216 222 225 222 225 229 223 211 255 262 241 214 228 230 216 221 224 242 255 251 249 269 271 266 263 258 259 260 262 265 266 266 267
226 240 251 241 280 262 235 229 221 217 214 209 218 251 241 207 242 241 225 224 259 275 271 253 215 222 271 230 220 233 245 258 271 270 268 264 263 264 264 267 271 269 267
298 310 268 228 198 211 238 233 229 221 221 215 206 227 238 222 219 218 241 244 248 266 253 301 251 223 238 210 226 244 266 269 287 296 287 284 276 275 273 276 278 276 274
54 346 65 173 174 197 214 226 216 213 218 220 218 231 242 242 233 224 232 245 235 246 252 255 239 221 229 239 247 259 257 244 252 264 280 286 277 271 288 293 290 282 277
134 147 266 76 120 152 174 185 187 209 228 236 232 221 232 238 241 230 240 247 245 247 250 260 259 253 239 241 258 260 268 270 265 254 260 269 275 273 279 282 275 277 287
161 163 141 129 97 128 157 139 89 67 64 62 67 148 228 237 241 245 240 243 245 249 254 256 260 258 263 264 272 274 277 281 283 282 275 275 274 274 283 287 288 292 286
171 154 129 194 128 232 222 211 194 146 235 185 162 21 268 248 247 237 238 242 240 240 243 249 250 261 275 283 277 287 293 297 291 295 288 289 287 289 289 289 290 292 289
187 168 184 156 218 246 246 245 220 180 300 303 189 206 290 276 262 249 247 253 255 255 258 254 244 245 255 262 253 250 261 273 279 250 287 281 266 260 264 263 277 281 280
201 178 174 185 246 264 263 234 200 169 178 226 226 215 180 219 224 245 257 272 279 263 262 264 272 268 266 271 272 272 271 278 281 280 280 284 286 296 287 277 276 284 297
221 213 211 213 262 273 247 230 204 216 160 260 235 231 234 252 244 253 263 270 260 242 278 280 278 271 270 282 279 276 278 279 284 295 304 295 308 301 296 298 295 304 310
225 223 220 210 263 268 245 207 178 138 230 256 243 248 272 290 298 288 273 268 267 259 243 261 261 267 272 277 276 277 276 279 284 281 283 289 291 292 282 279 292 288 309
206 200 226 227 243 256 241 236 211 207 172 251 264 293 301 303 310 304 285 264 241 254 234 242 258 287 298 307 296 291 288 283 285 298 277 308 304 313 311 291 285 291 291